Flag for U.S.A. Weather past 2 weeks in Charlotte, North Carolina, U.S.A.

45 °F

Low clouds.

Feels Like: 41 °F
Forecast: 49 / 59 °F
Wind: 7 mph from North

Location: Charlotte / Douglas International Airport

Current Time: Dec 1, 2015 at 2:39:03 AM

Latest Report: Dec 1, 2015 at 1:52 AM

Visibility: 3 mi

Pressure: 30.16 "Hg

Humidity: 90%

Dew point: 42 °F

Location of CharlotteLocation

Historic Weather in Charlotte — Graph


Charlotte temperature yesterday

Maximum temperature yesterday: 59 °F (at 12:52 AM)
Minimum temperature yesterday: 46 °F (at 8:52 PM)
Average temperature yesterday: 54 °F

Past Weeks' High & Low Weather Summary

High73 °F (Nov 18, 1:52 PM)97% (Nov 19, 2:52 AM)30.74 "Hg (Nov 19, 2:52 AM)
Low27 °F (Nov 24, 5:52 AM)23% (Nov 21, 1:52 PM)29.91 "Hg (Nov 22, 4:52 AM)
Average53 °F64%30.27 "Hg
* Reported Nov 16 12:52 AM — Dec 1 12:52 AM, Charlotte, Weather by CustomWeather, © 2015

Note: Actual official high and low records may vary slightly from our data, if they occured in-between our weather recording intervals... More about our weather records


Charlotte weather history for previous 24 hours

Time TempWeatherWind HumidityBarometerVisibility
12:52 AM
Tue, Dec 1
45 °FLow clouds.5 mph93%30.16 "Hg3 mi
11:52 PM
Mon, Nov 30
46 °FLow clouds.7 mph89%30.17 "Hg3 mi
10:52 PM46 °FMostly cloudy.6 mph89%30.17 "Hg3 mi
9:52 PM46 °FLight rain. Mostly cloudy.6 mph93%30.19 "Hg3 mi
8:52 PM46 °FLow clouds.7 mph93%30.19 "Hg3 mi
7:52 PM47 °FFog.7 mph90%30.19 "Hg3 mi
6:52 PM49 °FDrizzle. Low clouds.10 mph90%30.18 "Hg3 mi
5:52 PM49 °FDrizzle. Low clouds.7 mph93%30.17 "Hg3 mi
4:52 PM50 °FLight rain. Fog.7 mph89%30.16 "Hg3 mi
3:52 PM51 °FDrizzle. Low clouds.9 mph89%30.17 "Hg3 mi
2:52 PM52 °FDrizzle. Low clouds.9 mph93%30.16 "Hg3 mi
1:52 PM54 °FLight rain. Fog.6 mph90%30.17 "Hg3 mi
12:52 PM54 °FLight rain. Mostly cloudy.6 mph93%30.17 "Hg3 mi
11:52 AM56 °FRain. Fog.9 mph90%30.19 "Hg3 mi
10:52 AM57 °FHeavy rain. Fog.8 mph90%30.20 "Hg2 mi
9:52 AM59 °FRain. Fog.10 mph90%30.18 "Hg3 mi
8:52 AM59 °FHeavy rain. Fog.10 mph90%30.17 "Hg2 mi
7:52 AM59 °FRain. Fog.7 mph90%30.15 "Hg3 mi
6:52 AM58 °FRain. Fog.7 mph93%30.14 "Hg6 mi
5:52 AM59 °FHeavy rain. Fog.6 mph90%30.14 "Hg3 mi
4:52 AM59 °FHeavy rain. Fog.5 mph90%30.13 "Hg4 mi
3:52 AM59 °FRain. Fog.No wind90%30.13 "Hg5 mi
2:52 AM58 °FLight rain. Mostly cloudy.3 mph93%30.13 "Hg8 mi
Weather by CustomWeather, © 2015

See weather overviewHow to use our weather pages